Voltar ao catálogo

DELTA 1 DEB

AtivoLEO
NORAD 10251·DEBRIS·🇺🇸 United States

Lançado Jul 14, 1977 de Cape Canaveral Space Force Station

Loading…

Próximas Passagens (próximas 24 horas)

TLE

AtualizadoSource: Space-Track

Época: Sep 14, 2026, 11:53 UTC

1 10251U 77065CC  26257.49574777  .00003498  00000-0  46111-3 0  9996
2 10251  28.9725  53.9975 0665846 164.0580 198.2061 13.85861165429669

Acompanhe DELTA 1 DEB em tempo real com AllMySat

Download on the App Store